Zurück zum Katalog

SL-8 R/B

AktivLEO
NORAD 7665·ROCKET BODY·🇷🇺 Russia

Gestartet Feb 12, 1975 von Plesetsk Cosmodrome

Loading…

Nächste Überflüge (nächste 24 Stunden)

TLE

AktuellSource: Space-Track

Epoche: Sep 14, 2026, 11:44 UTC

1 07665U 75012B   26257.48913374 -.00000021  00000-0  10279-3 0  9996
2 07665  69.2293 162.6459 0021632 332.8356 200.2419 12.70482945392356

Verfolge SL-8 R/B in Echtzeit mit AllMySat

Download on the App Store